Regional Weather Roundup
Issued by NWS

Home | Current Version | Previous Version | Graphics & Text | Print | Product List | Glossary On
Versions: 1 2 3 4 5 6 7 8 9 10 11 12 13 14 15 16 17 18 19 20 21 22 23 24 25 26 27 28 29 30 31 32 33 34 35 36 37 38 39 40 41 42 43 44 45 46 47 48 49 50
000
ASUS43 KFSD 260910
RWRSD

WEATHER ROUNDUP FOR SOUTH DAKOTA
NATIONAL WEATHER SERVICE SIOUX FALLS SD
400 AM CDT MON JUN 26 2017

NOTE: "FAIR" INDICATES FEW OR NO CLOUDS BELOW 12,000 FEET WITH NO
SIGNIFICANT WEATHER AND/OR OBSTRUCTIONS TO VISIBILITY.


SDZ001>005-009-010-012>017-261000-
NORTHWEST AND NORTH CENTRAL SOUTH DAKOTA

CITY           SKY/WX    TMP DP  RH WIND       PRES   REMARKS
BUFFALO          N/A     51  40  65 SE7       30.19S
FAITH            N/A     44  41  89 S10       30.24R
MOBRIDGE       CLEAR     49  42  77 E8        30.22S
$$

SDZ012>016-024>037-041>051-057-063-072>074-261000-
SOUTHWEST AND SOUTH CENTRAL SOUTH DAKOTA

CITY           SKY/WX    TMP DP  RH WIND       PRES   REMARKS
RAPID CTY ARPT CLEAR     52  37  56 W3        30.26F
PIERRE         CLEAR     47  43  86 NE5       30.21S
CUSTER         CLEAR     44  32  62 N5        30.32F
ELLSWORTH AFB  CLEAR     53  38  55 SW5       30.25F
PHILIP         MOCLDY    44  40  85 NW3       30.23S
PINE RIDGE     CLOUDY    48  41  76 E6        30.24S
SPEARFISH      FAIR      54  37  54 SE8       30.25F
WINNER         FAIR      52  45  77 E3        30.21S
$$

SDZ004>011-016>023-039-040-261000-
NORTHEAST SOUTH DAKOTA

CITY           SKY/WX    TMP DP  RH WIND       PRES   REMARKS
ABERDEEN       CLEAR     42  41  96 CALM      30.23S
WATERTOWN      CLEAR     45  43  93 N5        30.21S
BROOKINGS      CLEAR     47  46  97 CALM      30.21S
SISSETON         N/A     47  42  83 CALM      30.21S
$$

SDZ017-020-022-023-036>040-048>070-261000-
SOUTHEAST SOUTH DAKOTA

CITY           SKY/WX    TMP DP  RH WIND       PRES   REMARKS
SIOUX FALLS    PTCLDY    53  52  96 N5        30.18F
HURON          CLEAR     47  46  97 CALM      30.21S
CHAMBERLAIN    CLEAR     51  46  83 CALM      30.21S
MITCHELL       PTCLDY    53  50  89 NW5       30.20S
YANKTON        MOCLDY    54  50  86 CALM      30.20R
$$

ABBREVIATIONS USED IN REMARKS
   TC - TEMPERATURE IN CELSIUS
  WCI - WIND CHILL INDEX
   HX - HEAT INDEX
  VSB - VISIBILITY





USA.gov is the U.S. government's official web portal to all federal, state and local government web resources and services.